Regional Weather Roundup
Issued by NWS Sterling, VA

Home | Current Version | Previous Version | Graphics & Text | Print | Product List | Glossary On
Versions: 1 2 3 4 5 6 7 8 9 10 11 12 13 14 15 16 17 18 19 20 21 22 23 24 25 26 27 28 29 30 31 32 33 34 35 36 37 38 39 40 41 42 43 44 45 46 47 48 49 50
384
ASUS41 KLWX 260411
RWRLWX

REGIONAL WEATHER ROUNDUP
NATIONAL WEATHER SERVICE BALTIMORE MD/WASHINGTON DC
1200 AM EDT WED JUL 26 2017

Note: "FAIR" indicates few or no clouds below 12,000 feet
with no significant weather and/or obstructions to visibility.
 TC=TEMPERATURE CELSIUS

 * =Non NWS site. Station does not report precipitation (e.g. rain,
    snow, etc.), thunder, or fog.

DCZ001-MDZ009-015-VAZ040>042-051-053>054-260500-
WASHINGTON METRO

CITY           SKY/WX    TMP DP  RH WIND       PRES   REMARKS
WASHINGTON NAT PTCLDY    74  63  68 N8        30.20R
DULLES         PTCLDY    67  61  81 NW3       30.21R
ANDREWS AFB    CLEAR     69  61  77 N5        30.19R
FT BELVOIR     CLEAR     67  62  84 CALM      30.20R
QUANTICO       PTCLDY    69  65  86 NW8       30.21R
COLLEGE PARK*  CLEAR     66  63  89 CALM      30.20R
LEESBURG*      CLEAR     68  64  88 CALM      30.23R
MANASSAS*      CLEAR     62  61  96 CALM      30.21R
GAITHERSBURG*  CLEAR     63  61  93 CALM      30.22R

$$

MDZ006>007-011-014-260500-
BALTIMORE METRO

CITY           SKY/WX    TMP DP  RH WIND       PRES   REMARKS
BWI AIRPORT    PTCLDY    69  62  78 NW3       30.19R
MD SCIENCE CTR   N/A     75  61  61 MISG      30.20R
MARTIN STATE   MOCLDY    70  64  83 NW5       30.20S
ANNAPOLIS      CLEAR     74  68  81 N6        30.18S
FORT MEADE*    CLEAR     63  61  94 CALM      30.22R

$$

MDZ012-015-019>023-260500-
MARYLAND EASTERN SHORE

CITY           SKY/WX    TMP DP  RH WIND       PRES   REMARKS
OCEAN CITY     PTCLDY    71  66  84 E3        30.18R
SALISBURY      CLEAR     68  67  96 CALM      30.18R
BAY BRIDGE AP* CLEAR     72  63  73 NE5       30.18S
CAMBRIDGE*     PTCLDY    70  66  88 CALM      30.18S
EASTON*        PTCLDY    71  65  82 CALM      30.22S

$$

MDZ017>025-260500-
SOUTHERN MARYLAND

CITY           SKY/WX    TMP DP  RH WIND       PRES   REMARKS
PATUXENT RIVER CLOUDY    74  65  73 NE7       30.17R
ST INIGOES     MOCLDY    69  67  93 CALM      30.17R
LEONARDTOWN*   CLOUDY    70  63  78 CALM      30.19S

$$

MDZ003>005-260500-
NORTH CENTRAL MARYLAND

CITY           SKY/WX    TMP DP  RH WIND       PRES   REMARKS
FREDERICK*     CLEAR     64  64 100 CALM      30.23S
HAGERSTOWN APT CLOUDY    72  60  66 CALM      30.22R
WESTMINSTER*   CLEAR     70  63  78 CALM      30.22R

$$

MDZ501>502-260500-
WESTERN MARYLAND

CITY           SKY/WX    TMP DP  RH WIND       PRES   REMARKS
OAKLAND*       CLOUDY    55  54  94 CALM      30.27S
CUMBERLAND*    PTCLDY    63  63 100 CALM      30.28R

$$

VAZ025>031-260500-
SHENANDOAH VALLEY

CITY           SKY/WX    TMP DP  RH WIND       PRES   REMARKS
WINCHESTER*    CLEAR     59  57  94 CALM      30.22S
FRONT ROYAL*   CLEAR     61  59  94 CALM      30.22R
LURAY*         CLEAR     63  59  88 CALM      30.23S
NEW MARKET*    CLEAR     61  58  87 CALM      30.23S
STAUNTON*      CLEAR     65  57  74 CALM      30.26S
WAYNESBORO*    PTCLDY    67  59  77 CALM      30.25S

$$

WVZ021-048>050-054>055-260500-
EASTERN WEST VIRGINIA PANHANDLE

CITY           SKY/WX    TMP DP  RH WIND       PRES   REMARKS
MARTINSBURG    CLEAR     62  60  93 SW3       30.21S
PETERSBURG*    PTCLDY    65  60  84 CALM      30.25S

$$

VAZ036>039-050-260500-
CENTRAL FOOTHILLS

CITY           SKY/WX    TMP DP  RH WIND       PRES   REMARKS
CHARLOTTESVILL PTCLDY    67  61  81 NW3       30.21S
CULPEPER*      CLEAR     63  61  94 CALM      30.22S
ORANGE*        PTCLDY    63  59  88 CALM      30.21S
GORDONSVILLE*  MOCLDY    65  61  87 CALM      30.20F
WARRENTON*     CLEAR     61  57  86 CALM      30.21R

$$

VAZ055>057-260500-
NORTH AND CENTRAL PIEDMONT

CITY           SKY/WX    TMP DP  RH WIND       PRES   REMARKS
FREDERICKSBRG* MOCLDY    69  63  80 CALM      30.19S
STAFFORD*      PTCLDY    62  62 100 NW5       30.24S

$$

NCZ024-NYZ072-PAZ021-071-VAZ022-071-260500-
OTHER REGIONAL OBSERVATIONS

CITY           SKY/WX    TMP DP  RH WIND       PRES   REMARKS
NEW YORK CITY  CLOUDY    67  57  70 E6        30.25R
PHILADELPHIA   CLOUDY    68  63  84 E8        30.21R
PITTSBURGH     PTCLDY    66  60  81 CALM      30.22S
ROANOKE        MOCLDY    76  61  59 CALM      30.23R
RICHMOND       PTCLDY    71  63  75 N3        30.18R
RALEIGH        PTCLDY    79  72  79 E9        30.13R

$$

ANZ530>537-260500-
MARINE OBSERVATIONS

STATION/POSITION TIME  TEMP    WIND        PRES
                       AIR SEA DIR/SP/G
                 (UTC) (F)     (DEG/KT/KT) (MB)
THOMAS PT LIGHT  0400   75 82  350/  9/ 10   N/A
BALT KEY BRIDGE  0348   74     360/  8/  9 1022.1R
COVE POINT       0348   75      80/ 12/ 14 1022.4R
LEWISETTA        0348   78 83   60/  7/  9 1021.5R
SOLOMONS ISLAND  0348   76 84  360/  4/  5   N/A
PINEY POINT      0348           30/  5/  7   N/A

$$





USA.gov is the U.S. government's official web portal to all federal, state and local government web resources and services.